This is the latest recevied weather packets stored in our database for station/object DM1RG-6. If no packets are shown the sender has not sent any weather packets the latest 1 day(s).
| Time | Temp. | Humidity | Pressure | Rain* | Wind** | Luminosity | Snow |
|---|---|---|---|---|---|---|---|
| 1778019844 | 13.33° C | 94% | 1006.4 hPa | 1.02 mm | 2.68 m/s, 47° | - | - |
| 1778019483 | 13.33° C | 94% | 1006.4 hPa | 1.02 mm | 2.24 m/s, 47° | - | - |
| 1778019123 | 13.33° C | 94% | 1006.5 hPa | 0.51 mm | 2.68 m/s, 46° | - | - |
| 1778018763 | 13.33° C | 93% | 1006.4 hPa | 0.51 mm | 3.13 m/s, 48° | - | - |
| 1778018404 | 13.89° C | 93% | 1006.5 hPa | 0.25 mm | 3.58 m/s, 40° | - | - |
| 1778018043 | 13.89° C | 92% | 1006.2 hPa | 0.25 mm | 3.58 m/s, 28° | - | - |
| 1778017683 | 13.89° C | 91% | 1006.3 hPa | 0.25 mm | 3.13 m/s, 41° | - | - |
| 1778017323 | 14.44° C | 90% | 1006 hPa | 0 mm | 3.13 m/s, 51° | - | - |
| 1778016963 | 14.44° C | 90% | 1006.3 hPa | 0 mm | 3.13 m/s, 42° | - | - |
| 1778016603 | 14.44° C | 90% | 1006.1 hPa | 0 mm | 2.68 m/s, 42° | - | - |
| 1778016244 | 14.44° C | 90% | 1006.2 hPa | 0 mm | 2.68 m/s, 53° | - | - |
| 1778015883 | 14.44° C | 89% | 1006.1 hPa | 0 mm | 3.13 m/s, 65° | - | - |
| 1778015523 | 14.44° C | 89% | 1006.2 hPa | 0 mm | 3.58 m/s, 58° | - | - |
| 1778015163 | 15° C | 89% | 1006.3 hPa | 0 mm | 3.58 m/s, 50° | - | - |
| 1778014804 | 15° C | 89% | 1006.1 hPa | 0 mm | 2.68 m/s, 42° | - | - |
| 1778014444 | 15° C | 89% | 1006.4 hPa | 0 mm | 2.68 m/s, 49° | - | - |
| 1778014083 | 15° C | 89% | 1006.3 hPa | 0 mm | 2.68 m/s, 47° | - | - |
| 1778013723 | 15° C | 88% | 1006.2 hPa | 0 mm | 2.24 m/s, 40° | - | - |
| 1778013363 | 15° C | 88% | 1006 hPa | 0 mm | 2.24 m/s, 39° | - | - |
| 1778013003 | 15° C | 88% | 1006.1 hPa | 0 mm | 2.24 m/s, 53° | - | - |
| 1778012643 | 15.56° C | 88% | 1006.3 hPa | 0 mm | 2.24 m/s, 40° | - | - |
| 1778012283 | 15.56° C | 88% | 1006.4 hPa | 0 mm | 2.24 m/s, 41° | - | - |
| 1778011927 | 15.56° C | 88% | 1006.3 hPa | 0 mm | 2.24 m/s, 35° | - | - |
| 1778011563 | 15.56° C | 87% | 1006.3 hPa | 0 mm | 2.24 m/s, 35° | - | - |
| 1778011203 | 15.56° C | 87% | 1006.3 hPa | 0 mm | 2.24 m/s, 43° | - | - |
* Rain latest hour (hover to see other rain measurements)
** Current wind speed in m/s (hover to see current wind gust speed)